Погода в Джерси-Сити

США     40°42′52″N   74°04′05″W
темп.,
°C
ветер,
м/с
пор.,
м/с
влажн.,
%
обл.,
%
осадки,
мм/ч
давл.,
гПа
погр.,
м
15 мая, сб
сб1523:00+18юз37415 0.1 1023268
02:00+15з115349 0.1 102335
05:00+14с12555 0.1 102334
08:00+16с125734 0.3 1025213
11:00+22вюв2329100 0.0 10241147
14:00+22ю542742 0.0 10241890
17:00+22ююз132744 0.0 10231628
20:00+20юз123920 0.0 1024507
16 мая, вс
вс1623:00+17з1251100 0.0 102590
02:00+15зюз245799 0.0 1025188
05:00+14зюз256099 0.0 1025179
08:00+15зюз3449100 0.0 1026274
11:00+20юз452890 0.0 1026790
14:00+22ююз4528100 0.0 10241930
17:00+20ю4437100 0.0 1024777
20:00+19сз1343100 0.0 1024338
17 мая, пн
пн1723:00+17с125899 0.0 1025161
02:00+15ссз25675 0.0 1025196
05:00+13сз24664 0.0 1025189
08:00+16сз23480 0.0 1026319
11:00+21зюз22344 0.0 10261422
14:00+22ю43282 0.0 10242053
17:00+21ю663759 0.0 10241064
20:00+19ю474922 0.0 1025734
18 мая, вт
вт1823:00+17ююз475467 0.0 1026362
02:00+15юз3767100 0.0 1025288
05:00+14юз3676100 0.0 1025220
08:00+17зюз34635 0.0 1027302
11:00+23зюз3437100 0.0 10261472
14:00+23ююз353699 0.0 10251857
17:00+21ю454899 0.0 1024347
20:00+20ююз235510 0.0 1025107
19 мая, ср
ср1923:00+19зюз22631 0.0 102538
02:00+17з22715 0.0 102538
05:00+16зсз24735 0.0 102693
08:00+19с23595 0.0 1027233
11:00+25зсз22375 0.0 10271114
14:00+27юз23300 0.0 10261769
17:00+27ююз23290 0.0 10251675
20:00+23ююв34410 0.0 1026167